Year,Month,Day,Hour,Minute,Value (Times are PST for windspeed in km/hr)
2012,02,29,00,00,14.40
2012,02,29,00,01,16.70
2012,02,29,00,02,11.80
2012,02,29,00,03,20.20
2012,02,29,00,04,15.60
2012,02,29,00,05,16.40
2012,02,29,00,06,20.80
2012,02,29,00,07,18.70
2012,02,29,00,08,15.90
2012,02,29,00,09,13.00
2012,02,29,00,10,15.30
2012,02,29,00,11,8.30
2012,02,29,00,12,15.90
2012,02,29,00,13,8.20
2012,02,29,00,14,11.30
2012,02,29,00,15,9.90
2012,02,29,00,16,11.30
2012,02,29,00,17,6.30
2012,02,29,00,18,6.70
2012,02,29,00,19,2.30
2012,02,29,00,20,10.90
2012,02,29,00,21,6.00
2012,02,29,00,22,8.00
2012,02,29,00,23,5.60
2012,02,29,00,24,8.50
2012,02,29,00,25,11.30
2012,02,29,00,26,8.70
2012,02,29,00,27,4.10
2012,02,29,00,28,5.80
2012,02,29,00,29,3.10
2012,02,29,00,30,2.60
2012,02,29,00,31,4.40
2012,02,29,00,32,4.60
2012,02,29,00,33,1.30
2012,02,29,00,34,1.80
2012,02,29,00,35,2.70
2012,02,29,00,36,3.90
2012,02,29,00,37,6.00
2012,02,29,00,38,1.30
2012,02,29,00,39,0.70
2012,02,29,00,40,0.10
2012,02,29,00,41,0.10
2012,02,29,00,42,0.60
2012,02,29,00,43,0.00
2012,02,29,00,44,0.00
2012,02,29,00,45,0.10
2012,02,29,00,46,0.00
2012,02,29,00,47,0.20
2012,02,29,00,48,0.20
2012,02,29,00,49,0.10
2012,02,29,00,50,0.00
2012,02,29,00,51,2.20
2012,02,29,00,52,2.50
2012,02,29,00,53,3.50
2012,02,29,00,54,1.80
2012,02,29,00,55,0.30
2012,02,29,00,56,2.40
2012,02,29,00,57,4.00
2012,02,29,00,58,4.70
2012,02,29,00,59,3.50
2012,02,29,01,00,3.90
2012,02,29,01,01,5.90
2012,02,29,01,02,5.90
2012,02,29,01,03,5.10
2012,02,29,01,04,5.10
2012,02,29,01,05,2.40
2012,02,29,01,06,4.30
2012,02,29,01,07,5.50
2012,02,29,01,08,4.80
2012,02,29,01,09,4.80
2012,02,29,01,10,4.30
2012,02,29,01,11,6.30
2012,02,29,01,12,6.60
2012,02,29,01,13,6.00
2012,02,29,01,14,4.80
2012,02,29,01,15,5.30
2012,02,29,01,16,4.40
2012,02,29,01,17,5.20
2012,02,29,01,18,4.30
2012,02,29,01,19,5.00
2012,02,29,01,20,3.00
2012,02,29,01,21,1.80
2012,02,29,01,22,0.40
2012,02,29,01,23,0.00
2012,02,29,01,24,0.00
2012,02,29,01,25,0.00
2012,02,29,01,26,0.00
2012,02,29,01,27,0.80
2012,02,29,01,28,5.30
2012,02,29,01,29,2.60
2012,02,29,01,30,5.70
2012,02,29,01,31,6.10
2012,02,29,01,32,5.60
2012,02,29,01,33,4.30
2012,02,29,01,34,6.30
2012,02,29,01,35,4.70
2012,02,29,01,36,3.10
2012,02,29,01,37,5.50
2012,02,29,01,38,3.40
2012,02,29,01,39,4.50
2012,02,29,01,40,4.50
2012,02,29,01,41,3.10
2012,02,29,01,42,1.90
2012,02,29,01,43,1.40
2012,02,29,01,44,0.10
2012,02,29,01,45,0.80
2012,02,29,01,46,1.90
2012,02,29,01,47,0.20
2012,02,29,01,48,6.00
2012,02,29,01,49,5.60
2012,02,29,01,50,8.00
2012,02,29,01,51,7.80
2012,02,29,01,52,9.10
2012,02,29,01,53,14.70
2012,02,29,01,54,11.70
2012,02,29,01,55,10.80
2012,02,29,01,56,11.10
2012,02,29,01,57,6.90
2012,02,29,01,58,9.90
2012,02,29,01,59,9.30
2012,02,29,02,00,7.60
2012,02,29,02,01,6.90
2012,02,29,02,02,8.90
2012,02,29,02,03,9.80
2012,02,29,02,04,4.60
2012,02,29,02,05,5.10
2012,02,29,02,06,8.80
2012,02,29,02,07,6.80
2012,02,29,02,08,3.50
2012,02,29,02,09,3.90
2012,02,29,02,10,4.60
2012,02,29,02,11,4.40
2012,02,29,02,12,5.00
2012,02,29,02,13,5.30
2012,02,29,02,14,3.40
2012,02,29,02,15,5.60
2012,02,29,02,16,5.10
2012,02,29,02,17,5.50
2012,02,29,02,18,4.00
2012,02,29,02,19,4.20
2012,02,29,02,20,5.30
2012,02,29,02,21,6.00
2012,02,29,02,22,4.70
2012,02,29,02,23,2.00
2012,02,29,02,24,2.90
2012,02,29,02,25,2.40
2012,02,29,02,26,4.80
2012,02,29,02,27,10.70
2012,02,29,02,28,5.20
2012,02,29,02,29,8.00
2012,02,29,02,30,4.20
2012,02,29,02,31,3.80
2012,02,29,02,32,4.70
2012,02,29,02,33,2.00
2012,02,29,02,34,1.80
2012,02,29,02,35,1.00
2012,02,29,02,36,0.20
2012,02,29,02,37,2.70
2012,02,29,02,38,6.90
2012,02,29,02,39,3.20
2012,02,29,02,40,5.80
2012,02,29,02,41,5.40
2012,02,29,02,42,5.20
2012,02,29,02,43,4.20
2012,02,29,02,44,4.40
2012,02,29,02,45,5.50
2012,02,29,02,46,4.80
2012,02,29,02,47,5.60
2012,02,29,02,48,5.30
2012,02,29,02,49,2.20
2012,02,29,02,50,5.10
2012,02,29,02,51,1.40
2012,02,29,02,52,0.00
2012,02,29,02,53,4.10
2012,02,29,02,54,2.70
2012,02,29,02,55,3.00
2012,02,29,02,56,1.90
2012,02,29,02,57,2.80
2012,02,29,02,58,4.30
2012,02,29,02,59,5.00
2012,02,29,03,00,3.80
2012,02,29,03,01,1.20
2012,02,29,03,02,2.00
2012,02,29,03,03,0.90
2012,02,29,03,04,2.10
2012,02,29,03,05,0.10
2012,02,29,03,06,0.50
2012,02,29,03,07,0.00
2012,02,29,03,08,0.60
2012,02,29,03,09,0.00
2012,02,29,03,10,0.10
2012,02,29,03,11,1.40
2012,02,29,03,12,2.80
2012,02,29,03,13,2.30
2012,02,29,03,14,3.10
2012,02,29,03,15,1.20
2012,02,29,03,16,2.40
2012,02,29,03,17,4.00
2012,02,29,03,18,4.60
2012,02,29,03,19,0.50
2012,02,29,03,20,0.10
2012,02,29,03,21,3.90
2012,02,29,03,22,8.70
2012,02,29,03,23,7.60
2012,02,29,03,24,5.20
2012,02,29,03,25,9.90
2012,02,29,03,26,0.60
2012,02,29,03,27,0.10
2012,02,29,03,28,4.30
2012,02,29,03,29,4.50
2012,02,29,03,30,5.10
2012,02,29,03,31,3.10
2012,02,29,03,32,1.50
2012,02,29,03,33,1.30
2012,02,29,03,34,0.70
2012,02,29,03,35,0.50
2012,02,29,03,36,0.00
2012,02,29,03,37,0.00
2012,02,29,03,38,0.00
2012,02,29,03,39,0.00
2012,02,29,03,40,0.60
2012,02,29,03,41,0.80
2012,02,29,03,42,2.30
2012,02,29,03,43,3.70
2012,02,29,03,44,2.30
2012,02,29,03,45,1.30
2012,02,29,03,46,0.00
2012,02,29,03,47,0.20
2012,02,29,03,48,2.20
2012,02,29,03,49,4.60
2012,02,29,03,50,6.70
2012,02,29,03,51,4.50
2012,02,29,03,52,1.60
2012,02,29,03,53,0.60
2012,02,29,03,54,0.00
2012,02,29,03,55,0.00
2012,02,29,03,56,0.20
2012,02,29,03,57,2.80
2012,02,29,03,58,0.70
2012,02,29,03,59,0.00
2012,02,29,04,00,0.00
2012,02,29,04,01,0.00
2012,02,29,04,02,0.00
2012,02,29,04,03,0.00
2012,02,29,04,04,0.00
2012,02,29,04,05,0.00
2012,02,29,04,06,0.00
2012,02,29,04,07,2.20
2012,02,29,04,08,3.80
2012,02,29,04,09,2.70
2012,02,29,04,10,0.60
2012,02,29,04,11,0.00
2012,02,29,04,12,0.00
2012,02,29,04,13,0.00
2012,02,29,04,14,0.00
2012,02,29,04,15,1.20
2012,02,29,04,16,1.40
2012,02,29,04,17,1.20
2012,02,29,04,18,4.20
2012,02,29,04,19,0.80
2012,02,29,04,20,0.00
2012,02,29,04,21,0.00
2012,02,29,04,22,0.00
2012,02,29,04,23,0.00
2012,02,29,04,24,0.30
2012,02,29,04,25,0.00
2012,02,29,04,26,0.20
2012,02,29,04,27,1.00
2012,02,29,04,28,0.00
2012,02,29,04,29,2.20
2012,02,29,04,30,1.90
2012,02,29,04,31,1.50
2012,02,29,04,32,0.00
2012,02,29,04,33,0.00
2012,02,29,04,34,0.00
2012,02,29,04,35,0.00
2012,02,29,04,36,0.00
2012,02,29,04,37,0.00
2012,02,29,04,38,0.00
2012,02,29,04,39,1.50
2012,02,29,04,40,0.00
2012,02,29,04,41,0.00
2012,02,29,04,42,1.40
2012,02,29,04,43,2.70
2012,02,29,04,44,4.40
2012,02,29,04,45,1.20
2012,02,29,04,46,1.50
2012,02,29,04,47,0.20
2012,02,29,04,48,3.80
2012,02,29,04,49,3.00
2012,02,29,04,50,0.20
2012,02,29,04,51,0.10
2012,02,29,04,52,0.00
2012,02,29,04,53,0.00
2012,02,29,04,54,0.00
2012,02,29,04,55,0.00
2012,02,29,04,56,0.00
2012,02,29,04,57,0.00
2012,02,29,04,58,0.00
2012,02,29,04,59,0.00
2012,02,29,05,00,0.00
2012,02,29,05,01,0.00
2012,02,29,05,02,0.00
2012,02,29,05,03,0.00
2012,02,29,05,04,0.00
2012,02,29,05,05,0.00
2012,02,29,05,06,0.00
2012,02,29,05,07,0.00
2012,02,29,05,08,0.00
2012,02,29,05,09,0.00
2012,02,29,05,10,0.00
2012,02,29,05,11,0.00
2012,02,29,05,12,1.00
2012,02,29,05,13,0.10
2012,02,29,05,14,0.00
2012,02,29,05,15,0.00
2012,02,29,05,16,0.00
2012,02,29,05,17,0.00
2012,02,29,05,18,0.00
2012,02,29,05,19,0.00
2012,02,29,05,20,0.00
2012,02,29,05,21,0.00
2012,02,29,05,22,0.00
2012,02,29,05,23,0.00
2012,02,29,05,24,0.00
2012,02,29,05,25,0.20
2012,02,29,05,26,0.60
2012,02,29,05,27,1.30
2012,02,29,05,28,1.00
2012,02,29,05,29,2.20
2012,02,29,05,30,3.90
2012,02,29,05,31,3.40
2012,02,29,05,32,5.00
2012,02,29,05,33,5.50
2012,02,29,05,34,4.10
2012,02,29,05,35,3.80
2012,02,29,05,36,1.30
2012,02,29,05,37,0.20
2012,02,29,05,38,0.30
2012,02,29,05,39,0.70
2012,02,29,05,40,0.60
2012,02,29,05,41,1.50
2012,02,29,05,42,1.80
2012,02,29,05,43,4.30
2012,02,29,05,44,3.50
2012,02,29,05,45,2.70
2012,02,29,05,46,3.00
2012,02,29,05,47,2.20
2012,02,29,05,48,0.30
2012,02,29,05,49,0.20
2012,02,29,05,50,0.00
2012,02,29,05,51,0.10
2012,02,29,05,52,0.30
2012,02,29,05,53,0.60
2012,02,29,05,54,0.30
2012,02,29,05,55,1.90
2012,02,29,05,56,3.60
2012,02,29,05,57,4.30
2012,02,29,05,58,6.40
2012,02,29,05,59,6.40
2012,02,29,06,00,7.50
2012,02,29,06,01,7.30
2012,02,29,06,02,7.00
2012,02,29,06,03,6.30
2012,02,29,06,04,6.70
2012,02,29,06,05,5.20
2012,02,29,06,06,6.00
2012,02,29,06,07,5.40
2012,02,29,06,08,7.10
2012,02,29,06,09,8.10
2012,02,29,06,10,7.50
2012,02,29,06,11,7.30
2012,02,29,06,12,8.10
2012,02,29,06,13,8.20
2012,02,29,06,14,7.50
2012,02,29,06,15,6.40
2012,02,29,06,16,6.80
2012,02,29,06,17,5.30
2012,02,29,06,18,4.00
2012,02,29,06,19,2.50
2012,02,29,06,20,0.60
2012,02,29,06,21,3.10
2012,02,29,06,22,4.90
2012,02,29,06,23,3.70
2012,02,29,06,24,2.90
2012,02,29,06,25,4.30
2012,02,29,06,26,4.70
2012,02,29,06,27,4.60
2012,02,29,06,28,5.70
2012,02,29,06,29,4.20
2012,02,29,06,30,2.70
2012,02,29,06,31,1.80
2012,02,29,06,32,0.20
2012,02,29,06,33,3.10
2012,02,29,06,34,6.20
2012,02,29,06,35,4.40
2012,02,29,06,36,5.10
2012,02,29,06,37,4.10
2012,02,29,06,38,1.40
2012,02,29,06,39,0.40
2012,02,29,06,40,0.00
2012,02,29,06,41,0.40
2012,02,29,06,42,1.10
2012,02,29,06,43,0.40
2012,02,29,06,44,0.20
2012,02,29,06,45,2.50
2012,02,29,06,46,5.10
2012,02,29,06,47,3.10
2012,02,29,06,48,1.40
2012,02,29,06,49,5.10
2012,02,29,06,50,5.60
2012,02,29,06,51,5.60
2012,02,29,06,52,1.90
2012,02,29,06,53,6.80
2012,02,29,06,54,6.90
2012,02,29,06,55,2.70
2012,02,29,06,56,3.60
2012,02,29,06,57,3.50
2012,02,29,06,58,2.30
2012,02,29,06,59,0.60
2012,02,29,07,00,4.00
2012,02,29,07,01,0.20
2012,02,29,07,02,0.00
2012,02,29,07,03,1.50
2012,02,29,07,04,5.00
2012,02,29,07,05,0.50
2012,02,29,07,06,0.40
2012,02,29,07,07,3.30
2012,02,29,07,08,5.00
2012,02,29,07,09,5.10
2012,02,29,07,10,9.70
2012,02,29,07,11,6.50
2012,02,29,07,12,4.60
2012,02,29,07,13,6.20
2012,02,29,07,14,7.50
2012,02,29,07,15,5.70
2012,02,29,07,16,0.00
2012,02,29,07,17,3.70
2012,02,29,07,18,7.40
2012,02,29,07,19,6.30
2012,02,29,07,20,6.80
2012,02,29,07,21,6.30
2012,02,29,07,22,7.10
2012,02,29,07,23,10.90
2012,02,29,07,24,8.00
2012,02,29,07,25,9.30
2012,02,29,07,26,8.40
2012,02,29,07,27,6.00
2012,02,29,07,28,8.80
2012,02,29,07,29,7.50
2012,02,29,07,30,7.40
2012,02,29,07,31,7.90
2012,02,29,07,32,7.40
2012,02,29,07,33,7.10
2012,02,29,07,34,5.60
2012,02,29,07,35,1.20
2012,02,29,07,36,3.40
2012,02,29,07,37,8.80
2012,02,29,07,38,3.50
2012,02,29,07,39,6.90
2012,02,29,07,40,9.80
2012,02,29,07,41,7.50
2012,02,29,07,42,8.10
2012,02,29,07,43,4.30
2012,02,29,07,44,3.10
2012,02,29,07,45,5.90
2012,02,29,07,46,8.00
2012,02,29,07,47,14.60
2012,02,29,07,48,8.30
2012,02,29,07,49,7.60
2012,02,29,07,50,3.20
2012,02,29,07,51,11.30
2012,02,29,07,52,13.00
2012,02,29,07,53,11.70
2012,02,29,07,54,15.70
2012,02,29,07,55,19.80
2012,02,29,07,56,21.60
2012,02,29,07,57,18.90
2012,02,29,07,58,21.90
2012,02,29,07,59,24.70
2012,02,29,08,00,21.30
2012,02,29,08,01,15.20
2012,02,29,08,02,17.50
2012,02,29,08,03,22.80
2012,02,29,08,04,21.20
2012,02,29,08,05,20.80
2012,02,29,08,06,17.20
2012,02,29,08,07,20.80
2012,02,29,08,08,13.70
2012,02,29,08,09,14.70
2012,02,29,08,10,17.80
2012,02,29,08,11,19.40
2012,02,29,08,12,21.20
2012,02,29,08,13,21.00
2012,02,29,08,14,19.20
2012,02,29,08,15,18.00
2012,02,29,08,16,20.00
2012,02,29,08,17,24.10
2012,02,29,08,18,25.10
2012,02,29,08,19,25.80
2012,02,29,08,20,23.60
2012,02,29,08,21,22.80
2012,02,29,08,22,12.70
2012,02,29,08,23,15.90
2012,02,29,08,24,14.80
2012,02,29,08,25,16.20
2012,02,29,08,26,21.40
2012,02,29,08,27,17.30
2012,02,29,08,28,16.50
2012,02,29,08,29,14.50
2012,02,29,08,30,10.70
2012,02,29,08,31,10.10
2012,02,29,08,32,16.30
2012,02,29,08,33,22.20
2012,02,29,08,34,23.40
2012,02,29,08,35,20.10
2012,02,29,08,36,5.50
2012,02,29,08,37,4.30
2012,02,29,08,38,11.00
2012,02,29,08,39,5.20
2012,02,29,08,40,5.00
2012,02,29,08,41,14.30
2012,02,29,08,42,23.00
2012,02,29,08,43,14.20
2012,02,29,08,44,14.00
2012,02,29,08,45,13.80
2012,02,29,08,46,11.80
2012,02,29,08,47,3.50
2012,02,29,08,48,21.90
2012,02,29,08,49,12.50
2012,02,29,08,50,5.30
2012,02,29,08,51,11.70
2012,02,29,08,52,32.40
2012,02,29,08,53,27.00
2012,02,29,08,54,31.10
2012,02,29,08,55,18.50
2012,02,29,08,56,25.10
2012,02,29,08,57,29.40
2012,02,29,08,58,29.20
2012,02,29,08,59,22.70
2012,02,29,09,00,31.90
2012,02,29,09,01,27.40
2012,02,29,09,02,29.30
2012,02,29,09,03,30.50
2012,02,29,09,04,33.10
2012,02,29,09,05,29.00
2012,02,29,09,06,35.70
2012,02,29,09,07,33.30
2012,02,29,09,08,24.30
2012,02,29,09,09,30.90
2012,02,29,09,10,25.70
2012,02,29,09,11,35.10
2012,02,29,09,12,30.80
2012,02,29,09,13,28.30
2012,02,29,09,14,31.30
2012,02,29,09,15,30.70
2012,02,29,09,16,28.20
2012,02,29,09,17,28.60
2012,02,29,09,18,25.70
2012,02,29,09,19,22.80
2012,02,29,09,20,21.60
2012,02,29,09,21,25.70
2012,02,29,09,22,29.10
2012,02,29,09,23,25.50
2012,02,29,09,24,21.30
2012,02,29,09,25,27.20
2012,02,29,09,26,15.20
2012,02,29,09,27,29.70
2012,02,29,09,28,22.70
2012,02,29,09,29,18.60
2012,02,29,09,30,17.80
2012,02,29,09,31,17.50
2012,02,29,09,32,13.10
2012,02,29,09,33,10.80
2012,02,29,09,34,16.80
2012,02,29,09,35,21.90
2012,02,29,09,36,18.00
2012,02,29,09,37,21.10
2012,02,29,09,38,18.10
2012,02,29,09,39,17.40
2012,02,29,09,40,24.10
2012,02,29,09,41,21.70
2012,02,29,09,42,14.70
2012,02,29,09,43,21.20
2012,02,29,09,44,6.80
2012,02,29,09,45,18.90
2012,02,29,09,46,16.20
2012,02,29,09,47,15.40
2012,02,29,09,48,9.20
2012,02,29,09,49,16.20
2012,02,29,09,50,9.70
2012,02,29,09,51,9.30
2012,02,29,09,52,16.10
2012,02,29,09,53,19.30
2012,02,29,09,54,16.20
2012,02,29,09,55,22.90
2012,02,29,09,56,22.80
2012,02,29,09,57,19.60
2012,02,29,09,58,26.90
2012,02,29,09,59,15.20
2012,02,29,10,00,15.50
2012,02,29,10,01,21.20
2012,02,29,10,02,14.00
2012,02,29,10,03,25.70
2012,02,29,10,04,20.70
2012,02,29,10,05,20.60
2012,02,29,10,06,21.60
2012,02,29,10,07,24.60
2012,02,29,10,08,22.90
2012,02,29,10,09,21.80
2012,02,29,10,10,25.30
2012,02,29,10,11,22.40
2012,02,29,10,12,23.20
2012,02,29,10,13,26.40
2012,02,29,10,14,19.10
2012,02,29,10,15,24.50
2012,02,29,10,16,19.10
2012,02,29,10,17,14.00
2012,02,29,10,18,16.20
2012,02,29,10,19,17.10
2012,02,29,10,20,16.70
2012,02,29,10,21,12.70
2012,02,29,10,22,14.30
2012,02,29,10,23,23.70
2012,02,29,10,24,16.00
2012,02,29,10,25,21.00
2012,02,29,10,26,24.80
2012,02,29,10,27,24.80
2012,02,29,10,28,18.50
2012,02,29,10,29,24.50
2012,02,29,10,30,24.60
2012,02,29,10,31,19.00
2012,02,29,10,32,16.00
2012,02,29,10,33,14.50
2012,02,29,10,34,21.10
2012,02,29,10,35,25.80
2012,02,29,10,36,28.20
2012,02,29,10,37,24.30
2012,02,29,10,38,21.60
2012,02,29,10,39,23.20
2012,02,29,10,40,23.70
2012,02,29,10,41,28.40
2012,02,29,10,42,22.80
2012,02,29,10,43,27.10
2012,02,29,10,44,27.90
2012,02,29,10,45,22.70
2012,02,29,10,46,22.00
2012,02,29,10,47,18.00
2012,02,29,10,48,23.30
2012,02,29,10,49,18.30
2012,02,29,10,50,24.00
2012,02,29,10,51,20.40
2012,02,29,10,52,23.40
2012,02,29,10,53,24.80
2012,02,29,10,54,20.00
2012,02,29,10,55,20.90
2012,02,29,10,56,26.80
2012,02,29,10,57,18.90
2012,02,29,10,58,24.10
2012,02,29,10,59,19.60
2012,02,29,11,00,21.20
2012,02,29,11,01,25.80
2012,02,29,11,02,26.80
2012,02,29,11,03,26.50
2012,02,29,11,04,24.90
2012,02,29,11,05,25.60
2012,02,29,11,06,23.50
2012,02,29,11,07,24.30
2012,02,29,11,08,15.80
2012,02,29,11,09,17.20
2012,02,29,11,10,24.10
2012,02,29,11,11,19.60
2012,02,29,11,12,15.20
2012,02,29,11,13,12.40
2012,02,29,11,14,10.90
2012,02,29,11,15,10.60
2012,02,29,11,16,13.40
2012,02,29,11,17,17.10
2012,02,29,11,18,16.70
2012,02,29,11,19,10.40
2012,02,29,11,20,7.30
2012,02,29,11,21,12.70
2012,02,29,11,22,10.60
2012,02,29,11,23,13.80
2012,02,29,11,24,17.60
2012,02,29,11,25,16.30
2012,02,29,11,26,15.40
2012,02,29,11,27,15.70
2012,02,29,11,28,15.80
2012,02,29,11,29,12.70
2012,02,29,11,30,8.30
2012,02,29,11,31,9.20
2012,02,29,11,32,9.80
2012,02,29,11,33,10.80
2012,02,29,11,34,5.90
2012,02,29,11,35,3.30
2012,02,29,11,36,1.60
2012,02,29,11,37,6.90
2012,02,29,11,38,8.60
2012,02,29,11,39,6.50
2012,02,29,11,40,1.80
2012,02,29,11,41,3.50
2012,02,29,11,42,5.80
2012,02,29,11,43,5.60
2012,02,29,11,44,3.40
2012,02,29,11,45,1.20
2012,02,29,11,46,2.10
2012,02,29,11,47,1.40
2012,02,29,11,48,2.90
2012,02,29,11,49,1.10
2012,02,29,11,50,4.40
2012,02,29,11,51,3.10
2012,02,29,11,52,3.20
2012,02,29,11,53,6.70
2012,02,29,11,54,7.40
2012,02,29,11,55,8.90
2012,02,29,11,56,6.20
2012,02,29,11,57,3.40
2012,02,29,11,58,4.10
2012,02,29,11,59,5.30
2012,02,29,12,00,1.30
2012,02,29,12,01,2.70
2012,02,29,12,02,0.30
2012,02,29,12,03,0.50
2012,02,29,12,04,0.00
2012,02,29,12,05,0.20
2012,02,29,12,06,2.30
2012,02,29,12,07,1.10
2012,02,29,12,08,0.50
2012,02,29,12,09,1.70
2012,02,29,12,10,0.00
2012,02,29,12,11,0.00
2012,02,29,12,12,1.00
2012,02,29,12,13,0.10
2012,02,29,12,14,0.60
2012,02,29,12,15,1.60
2012,02,29,12,16,2.10
2012,02,29,12,17,0.30
2012,02,29,12,18,0.50
2012,02,29,12,19,1.20
2012,02,29,12,20,0.10
2012,02,29,12,21,0.00
2012,02,29,12,22,0.00
2012,02,29,12,23,0.10
2012,02,29,12,24,0.00
2012,02,29,12,25,0.00
2012,02,29,12,26,0.00
2012,02,29,12,27,0.10
2012,02,29,12,28,0.00
2012,02,29,12,29,0.00
2012,02,29,12,30,1.40
2012,02,29,12,31,9.30
2012,02,29,12,32,16.80
2012,02,29,12,33,9.80
2012,02,29,12,34,9.60
2012,02,29,12,35,14.10
2012,02,29,12,36,16.00
2012,02,29,12,37,13.90
2012,02,29,12,38,11.30
2012,02,29,12,39,11.90
2012,02,29,12,40,13.50
2012,02,29,12,41,13.90
2012,02,29,12,42,8.90
2012,02,29,12,43,8.80
2012,02,29,12,44,11.20
2012,02,29,12,45,10.40
2012,02,29,12,46,8.40
2012,02,29,12,47,12.70
2012,02,29,12,48,13.00
2012,02,29,12,49,9.20
2012,02,29,12,50,6.60
2012,02,29,12,51,8.70
2012,02,29,12,52,9.60
2012,02,29,12,53,10.30
2012,02,29,12,54,12.30
2012,02,29,12,55,11.80
2012,02,29,12,56,10.90
2012,02,29,12,57,18.20
2012,02,29,12,58,14.10
2012,02,29,12,59,14.70
2012,02,29,13,00,14.40
2012,02,29,13,01,13.70
2012,02,29,13,02,12.60
2012,02,29,13,03,12.60
2012,02,29,13,04,16.00
2012,02,29,13,05,13.40
2012,02,29,13,06,9.80
2012,02,29,13,07,15.50
2012,02,29,13,08,13.70
2012,02,29,13,09,11.30
2012,02,29,13,10,13.00
2012,02,29,13,11,8.90
2012,02,29,13,12,7.90
2012,02,29,13,13,9.70
2012,02,29,13,14,14.60
2012,02,29,13,15,10.90
2012,02,29,13,16,8.10
2012,02,29,13,17,15.80
2012,02,29,13,18,17.90
2012,02,29,13,19,17.40
2012,02,29,13,20,16.60
2012,02,29,13,21,13.20
2012,02,29,13,22,14.20
2012,02,29,13,23,17.40
2012,02,29,13,24,19.80
2012,02,29,13,25,20.90
2012,02,29,13,26,22.70
2012,02,29,13,27,19.40
2012,02,29,13,28,11.40
2012,02,29,13,29,13.80
2012,02,29,13,30,10.50
2012,02,29,13,31,14.40
2012,02,29,13,32,21.30
2012,02,29,13,33,17.30
2012,02,29,13,34,11.70
2012,02,29,13,35,6.40
2012,02,29,13,36,11.20
2012,02,29,13,37,15.60
2012,02,29,13,38,14.70
2012,02,29,13,39,7.40
2012,02,29,13,40,11.90
2012,02,29,13,41,14.80
2012,02,29,13,42,10.30
2012,02,29,13,43,10.50
2012,02,29,13,44,6.00
2012,02,29,13,45,5.20
2012,02,29,13,46,4.10
2012,02,29,13,47,9.70
2012,02,29,13,48,12.30
2012,02,29,13,49,15.40
2012,02,29,13,50,18.30
2012,02,29,13,51,12.70
2012,02,29,13,52,13.70
2012,02,29,13,53,13.80
2012,02,29,13,54,8.70
2012,02,29,13,55,11.60
2012,02,29,13,56,13.00
2012,02,29,13,57,15.90
2012,02,29,13,58,12.90
2012,02,29,13,59,11.00
2012,02,29,14,00,12.30
2012,02,29,14,01,13.00
2012,02,29,14,02,9.70
2012,02,29,14,03,16.10
2012,02,29,14,04,11.60
2012,02,29,14,05,13.20
2012,02,29,14,06,12.20
2012,02,29,14,07,14.80
2012,02,29,14,08,13.30
2012,02,29,14,09,7.60
2012,02,29,14,10,6.00
2012,02,29,14,11,4.60
2012,02,29,14,12,14.00
2012,02,29,14,13,13.30
2012,02,29,14,14,8.60
2012,02,29,14,15,8.80
2012,02,29,14,16,9.30
2012,02,29,14,17,9.30
2012,02,29,14,18,7.40
2012,02,29,14,19,8.40
2012,02,29,14,20,9.00
2012,02,29,14,21,8.20
2012,02,29,14,22,7.20
2012,02,29,14,23,11.50
2012,02,29,14,24,9.70
2012,02,29,14,25,13.10
2012,02,29,14,26,8.70
2012,02,29,14,27,8.40
2012,02,29,14,28,8.50
2012,02,29,14,29,10.30
2012,02,29,14,30,10.00
2012,02,29,14,31,8.10
2012,02,29,14,32,6.10
2012,02,29,14,33,4.60
2012,02,29,14,34,6.00
2012,02,29,14,35,8.80
2012,02,29,14,36,9.80
2012,02,29,14,37,9.60
2012,02,29,14,38,4.00
2012,02,29,14,39,6.70
2012,02,29,14,40,5.30
2012,02,29,14,41,5.80
2012,02,29,14,42,6.40
2012,02,29,14,43,7.40
2012,02,29,14,44,2.30
2012,02,29,14,45,5.70
2012,02,29,14,46,1.50
2012,02,29,14,47,4.50
2012,02,29,14,48,6.10
2012,02,29,14,49,4.30
2012,02,29,14,50,6.70
2012,02,29,14,51,7.00
2012,02,29,14,52,6.80
2012,02,29,14,53,7.10
2012,02,29,14,54,3.30
2012,02,29,14,55,7.10
2012,02,29,14,56,4.70
2012,02,29,14,57,12.60
2012,02,29,14,58,10.50
2012,02,29,14,59,12.80
2012,02,29,15,00,9.00
2012,02,29,15,01,9.50
2012,02,29,15,02,6.80
2012,02,29,15,03,6.10
2012,02,29,15,04,6.50
2012,02,29,15,05,6.40
2012,02,29,15,06,5.60
2012,02,29,15,07,5.40
2012,02,29,15,08,4.90
2012,02,29,15,09,4.90
2012,02,29,15,10,7.60
2012,02,29,15,11,6.70
2012,02,29,15,12,6.60
2012,02,29,15,13,2.20
2012,02,29,15,14,8.60
2012,02,29,15,15,9.70
2012,02,29,15,16,8.80
2012,02,29,15,17,8.50
2012,02,29,15,18,7.60
2012,02,29,15,19,5.50
2012,02,29,15,20,8.70
2012,02,29,15,21,5.60
2012,02,29,15,22,8.00
2012,02,29,15,23,9.60
2012,02,29,15,24,3.20
2012,02,29,15,25,6.10
2012,02,29,15,26,4.30
2012,02,29,15,27,5.60
2012,02,29,15,28,6.50
2012,02,29,15,29,4.50
2012,02,29,15,30,1.40
2012,02,29,15,31,0.80
2012,02,29,15,32,0.20
2012,02,29,15,33,1.20
2012,02,29,15,34,4.40
2012,02,29,15,35,2.80
2012,02,29,15,36,1.60
2012,02,29,15,37,1.80
2012,02,29,15,38,2.00
2012,02,29,15,39,1.60
2012,02,29,15,40,2.20
2012,02,29,15,41,6.20
2012,02,29,15,42,2.20
2012,02,29,15,43,6.00
2012,02,29,15,44,3.90
2012,02,29,15,45,2.60
2012,02,29,15,46,2.60
2012,02,29,15,47,4.30
2012,02,29,15,48,4.50
2012,02,29,15,49,3.80
2012,02,29,15,50,3.30
2012,02,29,15,51,3.10
2012,02,29,15,52,3.80
2012,02,29,15,53,4.90
2012,02,29,15,54,1.00
2012,02,29,15,55,0.00
2012,02,29,15,56,1.00
2012,02,29,15,57,2.10
2012,02,29,15,58,1.00
2012,02,29,15,59,1.70
2012,02,29,16,00,4.10
2012,02,29,16,01,0.20
2012,02,29,16,02,1.40
2012,02,29,16,03,3.60
2012,02,29,16,04,1.70
2012,02,29,16,05,1.40
2012,02,29,16,06,0.20
2012,02,29,16,07,4.40
2012,02,29,16,08,1.20
2012,02,29,16,09,0.80
2012,02,29,16,10,1.50
2012,02,29,16,11,5.60
2012,02,29,16,12,4.20
2012,02,29,16,13,4.10
2012,02,29,16,14,3.00
2012,02,29,16,15,3.40
2012,02,29,16,16,2.60
2012,02,29,16,17,1.90
2012,02,29,16,18,4.10
2012,02,29,16,19,4.10
2012,02,29,16,20,1.40
2012,02,29,16,21,3.30
2012,02,29,16,22,1.50
2012,02,29,16,23,2.90
2012,02,29,16,24,4.70
2012,02,29,16,25,3.90
2012,02,29,16,26,4.20
2012,02,29,16,27,4.30
2012,02,29,16,28,3.00
2012,02,29,16,29,4.80
2012,02,29,16,30,2.30
2012,02,29,16,31,1.40
2012,02,29,16,32,2.00
2012,02,29,16,33,1.80
2012,02,29,16,34,0.90
2012,02,29,16,35,2.70
2012,02,29,16,36,2.20
2012,02,29,16,37,1.30
2012,02,29,16,38,0.00
2012,02,29,16,39,0.70
2012,02,29,16,40,0.00
2012,02,29,16,41,0.00
2012,02,29,16,42,0.00
2012,02,29,16,43,0.20
2012,02,29,16,44,2.80
2012,02,29,16,45,2.40
2012,02,29,16,46,0.10
2012,02,29,16,47,0.40
2012,02,29,16,48,4.10
2012,02,29,16,49,3.60
2012,02,29,16,50,3.10
2012,02,29,16,51,2.50
2012,02,29,16,52,2.10
2012,02,29,16,53,1.10
2012,02,29,16,54,2.70
2012,02,29,16,55,0.60
2012,02,29,16,56,0.60
2012,02,29,16,57,0.00
2012,02,29,16,58,0.10
2012,02,29,16,59,0.90
2012,02,29,17,00,0.10
2012,02,29,17,01,0.00
2012,02,29,17,02,0.00
2012,02,29,17,03,0.10
2012,02,29,17,04,0.00
2012,02,29,17,05,0.10
2012,02,29,17,06,0.20
2012,02,29,17,07,0.40
2012,02,29,17,08,0.20
2012,02,29,17,09,0.00
2012,02,29,17,10,0.00
2012,02,29,17,11,0.90
2012,02,29,17,12,0.30
2012,02,29,17,13,0.00
2012,02,29,17,14,0.00
2012,02,29,17,15,0.00
2012,02,29,17,16,0.00
2012,02,29,17,17,0.00
2012,02,29,17,18,0.00
2012,02,29,17,19,0.00
2012,02,29,17,20,0.00
2012,02,29,17,21,0.00
2012,02,29,17,22,0.00
2012,02,29,17,23,0.00
2012,02,29,17,24,0.00
2012,02,29,17,25,0.00
2012,02,29,17,26,0.00
2012,02,29,17,27,0.00
2012,02,29,17,28,0.00
2012,02,29,17,29,0.00
2012,02,29,17,30,0.00
2012,02,29,17,31,0.00
2012,02,29,17,32,0.00
2012,02,29,17,33,0.00
2012,02,29,17,34,0.00
2012,02,29,17,35,0.00
2012,02,29,17,36,0.00
2012,02,29,17,37,0.00
2012,02,29,17,38,0.00
2012,02,29,17,39,0.00
2012,02,29,17,40,1.10
2012,02,29,17,41,1.40
2012,02,29,17,42,0.00
2012,02,29,17,43,0.00
2012,02,29,17,44,0.00
2012,02,29,17,45,0.00
2012,02,29,17,46,0.10
2012,02,29,17,47,0.00
2012,02,29,17,48,0.00
2012,02,29,17,49,0.00
2012,02,29,17,50,0.00
2012,02,29,17,51,0.00
2012,02,29,17,52,0.00